Total_Precipitation_Accumulation
0.11 0.21 0.37 0.39 0.41 0.34 0.21 0.16 0.13 0.12 0.13 0.11 0.10 0.10 0.10 0.11 0.10 0.09 0.07 0.06 0.08 0.06 0.04 0.03 0.02 0.01 0.01 0.01 0.00 0.00 0.03 0.10 0.18 0.25 0.28 0.40 0.49 0.51 0.58 0.70 0.64 0.50 0.43 0.48
0.06 0.13 0.16 0.14 0.15 0.16 0.14 0.15 0.14 0.10 0.09 0.08 0.08 0.07 0.07 0.06 0.06 0.06 0.06 0.05 0.04 0.04 0.03 0.02 0.02 0.02 0.01 0.00 0.01 0.01 0.03 0.06 0.10 0.16 0.24 0.32 0.42 0.41 0.44 0.57 0.65 0.61 0.49 0.50
0.04 0.05 0.03 0.05 0.06 0.08 0.10 0.14 0.15 0.11 0.07 0.05 0.05 0.03 0.02 0.02 0.02 0.02 0.03 0.03 0.04 0.03 0.02 0.01 0.01 0.01 0.01 0.01 0.02 0.03 0.06 0.12 0.18 0.24 0.27 0.22 0.25 0.24 0.30 0.38 0.49 0.58 0.63 0.66
0.00 0.00 0.01 0.02 0.05 0.09 0.14 0.09 0.08 0.08 0.08 0.07 0.07 0.08 0.02 0.01 0.01 0.01 0.01 0.03 0.04 0.03 0.01 0.01 0.01 0.02 0.02 0.04 0.06 0.11 0.19 0.29 0.36 0.41 0.35 0.24 0.22 0.28 0.31 0.35 0.35 0.35 0.43 0.55
0.00 0.00 0.00 0.00 0.02 0.04 0.06 0.05 0.06 0.07 0.08 0.06 0.04 0.05 0.02 0.01 0.01 0.01 0.01 0.02 0.04 0.04 0.02 0.03 0.04 0.05 0.07 0.12 0.19 0.30 0.45 0.61 0.59 0.48 0.36 0.25 0.23 0.26 0.24 0.20 0.20 0.22 0.28 0.28
0.00 0.00 0.00 0.00 0.00 0.01 0.02 0.05 0.07 0.08 0.09 0.06 0.04 0.07 0.04 0.02 0.02 0.01 0.01 0.02 0.02 0.03 0.04 0.06 0.08 0.10 0.14 0.21 0.33 0.45 0.56 0.63 0.57 0.41 0.27 0.20 0.19 0.17 0.15 0.14 0.16 0.18 0.20 0.18
0.00 0.00 0.00 0.00 0.00 0.01 0.02 0.06 0.12 0.12 0.14 0.11 0.08 0.12 0.10 0.06 0.03 0.02 0.03 0.03 0.03 0.05 0.09 0.14 0.20 0.26 0.29 0.33 0.38 0.44 0.46 0.47 0.42 0.30 0.20 0.14 0.10 0.08 0.07 0.07 0.07 0.08 0.09 0.10
0.00 0.00 0.00 0.00 0.00 0.01 0.01 0.05 0.15 0.18 0.16 0.14 0.11 0.16 0.14 0.10 0.08 0.06 0.05 0.05 0.09 0.15 0.23 0.33 0.41 0.43 0.44 0.41 0.36 0.36 0.35 0.34 0.26 0.18 0.11 0.08 0.06 0.05 0.03 0.03 0.04 0.05 0.06 0.07
0.00 0.00 0.00 0.00 0.00 0.01 0.02 0.05 0.09 0.17 0.14 0.12 0.11 0.17 0.16 0.12 0.10 0.09 0.10 0.12 0.18 0.28 0.41 0.55 0.63 0.67 0.64 0.53 0.41 0.30 0.25 0.22 0.16 0.11 0.08 0.06 0.05 0.04 0.02 0.02 0.04 0.06 0.05 0.05
0.02 0.01 0.00 0.00 0.00 0.01 0.05 0.09 0.15 0.26 0.29 0.21 0.19 0.26 0.24 0.20 0.20 0.18 0.21 0.26 0.36 0.52 0.71 0.87 1.01 1.01 0.87 0.62 0.46 0.32 0.22 0.17 0.13 0.09 0.07 0.06 0.05 0.04 0.02 0.02 0.02 0.03 0.03 0.04
0.02 0.04 0.01 0.01 0.03 0.05 0.10 0.17 0.22 0.32 0.36 0.38 0.38 0.44 0.36 0.32 0.33 0.34 0.37 0.44 0.52 0.71 0.90 1.01 1.04 0.97 0.72 0.49 0.35 0.24 0.19 0.16 0.14 0.12 0.09 0.07 0.05 0.03 0.02 0.01 0.01 0.01 0.02 0.03
0.03 0.06 0.06 0.03 0.07 0.11 0.22 0.34 0.46 0.63 0.56 0.50 0.50 0.48 0.35 0.32 0.37 0.38 0.38 0.36 0.34 0.37 0.48 0.55 0.47 0.41 0.37 0.29 0.22 0.16 0.14 0.17 0.18 0.17 0.14 0.08 0.06 0.04 0.02 0.02 0.01 0.01 0.01 0.02
0.12 0.19 0.17 0.12 0.22 0.30 0.37 0.40 0.42 0.50 0.52 0.48 0.50 0.48 0.25 0.21 0.27 0.33 0.36 0.30 0.26 0.20 0.19 0.23 0.20 0.17 0.16 0.14 0.12 0.13 0.15 0.20 0.25 0.25 0.22 0.14 0.09 0.06 0.04 0.03 0.01 0.01 0.01 0.03
0.16 0.25 0.27 0.27 0.34 0.39 0.46 0.44 0.36 0.37 0.51 0.49 0.51 0.38 0.26 0.23 0.22 0.25 0.29 0.25 0.20 0.16 0.14 0.12 0.12 0.10 0.10 0.09 0.08 0.12 0.16 0.23 0.32 0.42 0.39 0.31 0.19 0.12 0.09 0.07 0.04 0.03 0.02 0.04
0.07 0.10 0.13 0.13 0.14 0.22 0.41 0.51 0.48 0.42 0.41 0.43 0.38 0.30 0.24 0.21 0.25 0.30 0.31 0.25 0.19 0.15 0.14 0.13 0.12 0.11 0.10 0.08 0.08 0.09 0.14 0.23 0.37 0.54 0.58 0.48 0.32 0.22 0.17 0.14 0.11 0.07 0.06 0.06
0.02 0.02 0.02 0.03 0.06 0.15 0.28 0.38 0.39 0.34 0.28 0.30 0.31 0.27 0.19 0.17 0.23 0.28 0.33 0.28 0.22 0.18 0.18 0.17 0.14 0.12 0.11 0.11 0.10 0.10 0.15 0.27 0.48 0.71 0.69 0.48 0.33 0.26 0.25 0.25 0.23 0.16 0.12 0.12
0.00 0.01 0.02 0.03 0.03 0.10 0.30 0.36 0.32 0.29 0.19 0.17 0.18 0.17 0.15 0.18 0.27 0.29 0.33 0.34 0.25 0.18 0.17 0.18 0.19 0.18 0.16 0.17 0.16 0.17 0.22 0.33 0.48 0.57 0.53 0.43 0.32 0.30 0.34 0.36 0.29 0.25 0.21 0.19
0.00 0.03 0.06 0.06 0.07 0.28 0.57 0.52 0.43 0.39 0.20 0.12 0.11 0.11 0.15 0.25 0.28 0.29 0.28 0.27 0.26 0.17 0.11 0.11 0.12 0.13 0.15 0.16 0.19 0.22 0.26 0.33 0.37 0.38 0.38 0.32 0.28 0.29 0.32 0.33 0.32 0.36 0.39 0.36
0.04 0.11 0.14 0.15 0.19 0.41 0.54 0.49 0.49 0.48 0.32 0.12 0.08 0.08 0.07 0.08 0.09 0.11 0.12 0.10 0.10 0.06 0.04 0.03 0.03 0.03 0.05 0.05 0.06 0.08 0.10 0.12 0.12 0.12 0.12 0.11 0.11 0.13 0.14 0.15 0.21 0.32 0.39 0.40
0.08 0.13 0.19 0.21 0.28 0.42 0.36 0.23 0.25 0.37 0.43 0.11 0.05 0.04 0.02 0.01 0.01 0.04 0.06 0.06 0.02 0.01 0.01 0.00 0.00 0.00 0.00 0.00 0.00 0.00 0.00 0.01 0.01 0.01 0.01 0.01 0.01 0.02 0.03 0.05 0.08 0.15 0.18 0.23
0.05 0.11 0.17 0.24 0.42 0.63 0.45 0.25 0.23 0.39 0.39 0.09 0.03 0.01 0.00 0.00 0.00 0.01 0.04 0.05 0.02 0.00 0.00 0.00 0.00 0.00 0.00 0.00 0.00 0.00 0.00 0.00 0.00 0.00 0.00 0.00 0.00 0.00 0.00 0.01 0.03 0.05 0.07 0.11
0.07 0.11 0.16 0.30 0.59 0.82 0.64 0.41 0.34 0.26 0.11 0.03 0.01 0.00 0.00 0.00 0.00 0.01 0.02 0.03 0.02 0.00 0.00 0.00 0.00 0.00 0.00 0.00 0.00 0.00 0.00 0.00 0.00 0.00 0.00 0.00 0.00 0.00 0.00 0.01 0.01 0.02 0.02 0.05
0.02 0.04 0.08 0.21 0.45 0.52 0.46 0.35 0.24 0.17 0.07 0.01 0.00 0.00 0.00 0.00 0.00 0.00 0.01 0.01 0.01 0.00 0.00 0.00 0.00 0.00 0.00 0.00 0.00 0.00 0.00 0.00 0.00 0.00 0.00 0.00 0.00 0.00 0.01 0.01 0.01 0.02 0.02 0.04
0.00 0.00 0.01 0.03 0.09 0.15 0.18 0.18 0.11 0.08 0.05 0.01 0.00 0.00 0.00 0.00 0.00 0.00 0.01 0.01 0.01 0.00 0.00 0.00 0.00 0.00 0.00 0.00 0.00 0.00 0.00 0.00 0.00 0.00 0.00 0.00 0.00 0.01 0.01 0.02 0.02 0.03 0.03 0.05
0.01 0.01 0.01 0.01 0.01 0.02 0.06 0.08 0.07 0.04 0.02 0.00 0.00 0.00 0.00 0.00 0.00 0.00 0.01 0.01 0.01 0.00 0.00 0.00 0.00 0.00 0.00 0.00 0.00 0.00 0.00 0.00 0.00 0.00 0.00 0.00 0.00 0.01 0.01 0.00 0.01 0.02 0.02 0.04
0.00 0.01 0.01 0.01 0.00 0.01 0.03 0.04 0.03 0.02 0.01 0.00 0.00 0.00 0.00 0.00 0.00 0.00 0.00 0.01 0.00 0.00 0.00 0.00 0.00 0.00 0.00 0.00 0.00 0.00 0.00 0.00 0.00 0.00 0.00 0.00 0.00 0.00 0.00 0.00 0.00 0.01 0.02 0.05